Location: Arbon
(43.0005°N, 0.7472°E)
Time: 11:39:23
(UTC+00:00)

Cosmos 2221 Rocket - Pass Details

Date: 22 April 2026
Orbit: 615 x 641 km, 82.5° (Epoch: 14 May)

Event Time Altitude Azimuth Distance (km) Brightness Sun altitude
Rises 20:14:05 0° 356° (N) 2,901 7.6 -15.0°
Reaches altitude 10° 20:16:21 10° 1° (N) 1,994 6.6 -15.4°
Maximum altitude 20:20:40 53° 79° (ENE) 765 3.7 -16.0°
Enters shadow 20:22:41 29° 143° (SE) 1,150 4.4 -16.3°
